COSMOS 2251 DEB, 53093

Orbit data source: Space-Track

COSMOS 2251 DEB, 53093 is space debris in LEO originally from a launch on Wed, 16 Jun 1993 UTC launched from the Plesetsk Missile And Space Complex (PKMTR). The debris from Iridium 33, an American commercial communications satellite, has been tracked extensively since its accidental collision with the defunct Russian satellite Cosmos 2251 in 2009. This event, occurring at high speed in low Earth orbit (LEO), generated thousands of pieces of space debris, significantly increasing the risk of further collisions. The Iridium 33 debris cloud has impacted space traffic management and orbital debris mitigation strategies, making it a subject of ongoing study in space situational awareness.

Loading next visibility...
Identifier
53093, 1993-036BYP
Orbit
LEO
Country
Flag of CISCIS
Related business
Manufacturer
Unknown
Mission
Spacecraft
Bus & Motor
Unknown
Mass
Unknown
Launch date (UTC)
1993-06-16 (33 years ago)
Launch vehicle
Unknown
Launch site
Plesetsk Missile And Space Complex (PKMTR)
Object type
Payload
Rocket body
Debris
Shape & HBR
Unknown shape, 0.1 m
Radar Cross Section
Medium (>0.1 m² and <1 m²)

Expand to show TLE details & history
Last TLE update: 17 hours ago

TLE from 17 hours ago
0 COSMOS 2251 DEB
1 53093U 93036BYP 26265.05468410  .00000883  00000-0  27030-3 0  9994
2 53093  74.0340 135.7327 0020616 151.8508 208.3769 14.43096219218118
Epoch: 2026-09-22T01:18Z
TLE epoch observation values (Epoch: 2026-09-22T01:18:44.706Z)
Latitude
0.00009°
Longitude
115.12079°
Altitude
763.842 km
Speed
7.466 km/s
True Right ascension
09h 02m 55s
True Declination
0° 00' 00"
Sunlit
Object was in daylight at epoch
Visualization orbit readout
Latitude
Unknown
Longitude
Unknown
Altitude
Unknown
Speed
Unknown
Apparent Right ascension
Unknown
Apparent Declination
Unknown
Sunlit
N/A
Visualization observer readout
Local Sidereal Time
11:05:15
Azimuth
Unknown
Elevation
Unknown
Doppler factor
Unknown
Orbital elements
Apogee altitude
760.59 km
Perigee altitude
731.216 km
Semi-major axis
7,124.04 km
Eccentricity
0.00206
Inclination
74.034°
RAAN
135.7327°
Arg. of periapsis
151.8508°
True anomaly
208.26488°
Mean anomaly
208.3769°
Eccentric anomaly
208.32086°
Mean motion
3.60955 °/min
Orbital period
99.74 mins
BSTAR
0.0002703
Loading maneuver chart data...
Computing Atmospheric mass density...

Documentation

Showing up to 5 results
|